[[{"header":{"parameterUnit":"m.s-1","parameterCategory":1,"la1":30.2991,"la2":30.254,"lo1":-89.0895,"lo2":-89.0444,"dy":0.0017,"dx":0.0017,"nx":28,"ny":28,"refTime":"2024-10-15T09:00:00:Z","depth":0,"parameterNumber":2,"parameterNumberName":"U-component_of_WINDS"},"data":[0,0,0,0,0,0,0,0,0,0,0,0,0,0,0,0,0,0,0,0,0,0,0,0,0,0,0,0,0,0,0,0,0,0,0,0,0,0,0,0,0,0,0,0,0,0,0,0,0,0,0,0,0,0,0,0,0,0,-2.4478,-2.4478,0,-2.4503,-2.4503,-2.4503,-2.4456,-2.4454,-2.4453,-2.4451,-2.4476,-2.4478,-2.4481,0,0,0,0,0,0,0,0,0,0,0,0,0,-2.4389,-2.4391,-2.4478,-2.4478,-2.4479,-2.4503,-2.4503,-2.4503,-2.4456,-2.4454,-2.4452,-2.4451,-2.4476,-2.4478,-2.4481,0,0,0,0,0,0,0,0,0,0,0,0,0,-2.4422,-2.4392,-2.4478,-2.4458,-2.4456,-2.4503,-2.4503,-2.4503,-2.4457,-2.4454,-2.4452,-2.445,-2.4475,-2.4478,-2.4481,-2.4548,0,0,-2.4491,-2.4492,0,0,0,0,0,0,0,0,-2.442,-2.4425,-2.4461,-2.4459,-2.4458,-2.4474,-2.4481,-2.4518,-2.4457,-2.4457,-2.4451,-2.4449,-2.4477,-2.448,-2.449,-2.4549,-2.455,-2.4491,-2.4493,-2.4494,-2.4495,0,0,0,0,0,0,0,-2.4418,-2.4424,-2.4488,-2.4461,-2.446,-2.4447,-2.445,-2.4488,-2.448,-2.4456,-2.4453,-2.4457,-2.4476,-2.4487,-2.449,-2.455,-2.4491,-2.4494,-2.4496,-2.4497,-2.4665,-2.4667,0,0,0,0,0,0,-2.4418,-2.4423,-2.4487,-2.4488,-2.4433,-2.4451,-2.4453,-2.4471,-2.4479,-2.4478,-2.4459,-2.4454,-2.4483,-2.4487,-2.4491,-2.457,-2.4494,-2.4497,-2.4499,-2.4662,-2.4665,-2.4668,0,0,0,0,0,0,-2.4417,-2.4425,-2.4486,-2.4455,-2.4461,-2.4455,-2.4475,-2.4473,-2.4484,-2.4481,-2.4479,-2.4471,-2.4481,-2.4486,-2.4534,-2.457,-2.4499,-2.4502,-2.4659,-2.4663,-2.4667,-2.4727,0,0,0,0,0,0,-2.4414,-2.4424,-2.445,-2.4456,-2.4463,-2.4529,-2.4478,-2.4475,-2.4489,-2.4484,-2.4492,-2.4492,-2.448,-2.4529,-2.4537,-2.4573,-2.4504,-2.4656,-2.4661,-2.4665,-2.4722,-2.4733,-2.4742,0,0,0,0,0,-2.4411,-2.4466,-2.4451,-2.4459,-2.4495,-2.4531,-2.4536,-2.4521,-2.4492,-2.4518,-2.4516,-2.4491,-2.4564,-2.4535,-2.4543,-2.458,-2.4654,-2.4659,-2.4665,-2.4718,-2.4731,-2.4742,0,0,0,0,0,0,-2.4465,-2.4466,-2.445,-2.4508,-2.452,-2.4523,-2.4555,-2.4535,-2.4555,-2.4549,-2.453,-2.4532,-2.4584,-2.4586,-2.4553,-2.4645,-2.4604,-2.4612,-2.4641,-2.4654,-2.4663,-2.4662,-2.4507,0,0,0,0,0,-2.4483,-2.4513,-2.4512,-2.4564,-2.457,-2.4562,-2.4577,-2.4564,-2.4576,-2.458,-2.4582,-2.4594,-2.4619,-2.4636,-2.466,-2.4722,-2.4723,-2.4751,-2.4761,-2.4769,-2.4777,-2.4809,-2.4822,-2.4687,-2.4687,-2.4687,0,0,-2.4522,-2.4526,-2.4546,-2.4574,-2.4582,-2.4613,-2.4566,-2.46,-2.4623,-2.4585,-2.463,-2.4632,-2.4644,-2.4699,-2.4723,-2.4703,-2.4814,-2.4777,-2.4783,-2.4786,-2.4817,-2.483,-2.4841,-2.4691,-2.469,-2.4689,0,0,-2.4608,-2.4614,-2.4658,-2.4666,-2.4678,-2.4672,-2.4682,-2.4688,-2.4688,-2.4733,-2.4705,-2.4731,-2.4776,-2.4785,-2.4796,-2.4885,-2.4863,-2.4893,-2.4945,-2.4977,-2.4988,-2.4997,-2.5029,-2.5041,-2.49,-2.49,-2.49,0,-2.4655,-2.47,-2.4683,-2.4719,-2.4732,-2.4699,-2.4743,-2.4752,-2.4771,-2.4781,-2.4757,-2.4812,-2.4818,-2.4874,-2.4896,-2.4906,-2.4917,-2.4892,-2.4987,-2.4997,-2.5005,-2.5035,-2.5047,-2.4903,-2.4903,-2.4902,-2.4902,0,-2.4757,-2.4788,-2.4822,-2.4841,-2.4858,-2.4898,-2.4886,-2.4905,-2.4891,-2.4887,-2.4933,-2.4938,-2.4962,-2.4974,-2.4961,-2.5029,-2.5016,-2.4991,-2.4949,-2.5022,-2.505,-2.5062,-2.4908,-2.4907,-2.4906,-2.4905,0,0,-2.4878,-2.4887,-2.49,-2.4908,-2.4918,-2.4942,-2.498,-2.5003,-2.502,-2.5034,-2.5065,-2.5103,-2.5079,-2.5091,-2.5078,-2.5107,-2.5177,-2.5077,-2.5077,-2.5096,-2.5253,-2.5273,-2.5286,-2.5162,-2.5164,-2.5166,-2.5252,0,-2.4964,-2.503,-2.5015,-2.508,-2.5109,-2.5078,-2.5111,-2.5121,-2.5118,-2.5141,-2.5138,-2.5165,-2.5132,-2.5139,-2.5165,-2.5163,-2.5208,-2.5156,-2.5191,-2.5193,-2.519,-2.5301,-2.5322,-2.5403,-2.5263,-2.5264,-2.5266,0,-2.5073,-2.5092,-2.5159,-2.5165,-2.5176,-2.5206,-2.5226,-2.5249,-2.5259,-2.5255,-2.5269,-2.525,-2.5287,-2.5245,-2.5296,-2.5261,-2.5274,-2.5275,-2.5278,-2.5281,-2.5234,-2.5308,-2.5428,-2.5441,-2.5283,-2.5281,-2.528,0,-2.5156,-2.5197,-2.5243,-2.5251,-2.5258,-2.528,-2.5284,-2.5292,-2.5306,-2.5323,-2.5333,-2.5354,-2.5366,-2.5382,-2.537,-2.534,-2.5423,-2.538,-2.542,-2.5421,-2.544,-2.5439,-2.5565,-2.5448,-2.5447,-2.5447,-2.5447,0,-2.5254,-2.5297,-2.528,-2.5309,-2.5355,-2.5337,-2.5384,-2.5384,-2.5391,-2.5419,-2.5393,-2.5419,-2.54,-2.5425,-2.5415,-2.5459,-2.5464,-2.5462,-2.5459,-2.5465,-2.5465,-2.5474,-2.5468,-2.545,-2.545,-2.5449,-2.5448,0,-2.5354,-2.5345,-2.5393,-2.5396,-2.5397,-2.5432,-2.5434,-2.546,-2.5454,-2.549,-2.5497,-2.5489,-2.5516,-2.5505,-2.5534,-2.5528,-2.5584,-2.5573,-2.5581,-2.5578,-2.562,-2.5616,-2.5756,-2.5774,-2.5644,-2.5646,-2.5647,0,-2.5418,-2.545,-2.5456,-2.5473,-2.5479,-2.5506,-2.5521,-2.5504,-2.552,-2.5534,-2.5558,-2.5583,-2.5603,-2.5648,-2.5645,-2.5667,-2.5657,-2.5704,-2.566,-2.5665,-2.5658,-2.5656,-2.566,-2.5713,-2.5715,-2.5716,-2.5717,0,-2.5532,-2.5525,-2.5548,-2.5569,-2.5587,-2.5603,-2.5616,-2.5631,-2.5615,-2.5635,-2.5663,-2.5678,-2.5707,-2.5733,-2.5752,-2.5755,-2.5734,-2.5731,-2.5742,-2.5748,-2.5752,-2.5751,-2.5605,-2.5728,-2.5727,-2.5726,-2.5726,-2.5725,-2.5616,-2.5643,-2.5652,-2.5678,-2.5686,-2.5699,-2.5723,-2.5721,-2.5744,-2.5767,-2.5755,-2.5788,-2.5796,-2.582,-2.5826,-2.5851,-2.5832,-2.5848,-2.5852,-2.5856,-2.5862,-2.5747,-2.5854,-2.5854,-2.5854,-2.5853,-2.5853,0,-2.5729,-2.5733,-2.5757,-2.5776,-2.5796,-2.5774,-2.5787,-2.5805,-2.5834,-2.5844,-2.5863,-2.5895,-2.592,-2.5918,-2.594,-2.596,-2.5951,-2.5967,-2.5965,-2.5966,-2.5877,-2.5866,-2.5974,-2.5974,-2.5974,-2.5974,-2.5974,-2.5974,-2.579,-2.5835,-2.5829,-2.5878,-2.5881,-2.5912,-2.5922,-2.5933,-2.5941,-2.5978,-2.5998,-2.5996,-2.6001,-2.6024,-2.6045,-2.6043,-2.6053,-2.6073,-2.6068,-2.5985,-2.5973,-2.5961,-2.5951,-2.6075,-2.6075,-2.6155,-2.6156,-2.6157]},{"header":{"parameterUnit":"m.s-1","parameterCategory":1,"la1":30.2991,"la2":30.254,"lo1":-89.0895,"lo2":-89.0444,"dy":0.0017,"dx":0.0017,"nx":28,"ny":28,"refTime":"2024-10-15T09:00:00:Z","depth":0,"parameterNumber":3,"parameterNumberName":"V-component_of_WINDS"},"data":[0,0,0,0,0,0,0,0,0,0,0,0,0,0,0,0,0,0,0,0,0,0,0,0,0,0,0,0,0,0,0,0,0,0,0,0,0,0,0,0,0,0,0,0,0,0,0,0,0,0,0,0,0,0,0,0,0,0,-7.0001,-7.0002,0,-7.0061,-7.0061,-7.0062,-7.0006,-7.0004,-7.0002,-7.0,-7.0055,-7.0058,-7.0062,0,0,0,0,0,0,0,0,0,0,0,0,0,-6.9834,-6.9838,-7.0001,-7.0002,-7.0003,-7.006,-7.0061,-7.0062,-7.0006,-7.0004,-7.0001,-6.9999,-7.0054,-7.0058,-7.0062,0,0,0,0,0,0,0,0,0,0,0,0,0,-6.9902,-6.9839,-7.0001,-6.9982,-6.9981,-7.006,-7.0061,-7.0062,-7.0007,-7.0004,-7.0,-6.9997,-7.0052,-7.0058,-7.0063,-7.0162,0,0,-7.0079,-7.0081,0,0,0,0,0,0,0,0,-6.9898,-6.9908,-6.9984,-6.9983,-6.9982,-7.0023,-7.0023,-7.0096,-7.0008,-6.9997,-6.9999,-6.9996,-7.0047,-7.0052,-7.007,-7.0165,-7.0167,-7.008,-7.0083,-7.0085,-7.0087,0,0,0,0,0,0,0,-6.9893,-6.9905,-7.0024,-6.9985,-6.9984,-6.9969,-6.9975,-7.0036,-7.0039,-6.9998,-6.9994,-7.0002,-7.0045,-7.0065,-7.0071,-7.0168,-7.0079,-7.0084,-7.0087,-7.009,-7.0348,-7.0351,0,0,0,0,0,0,-6.9891,-6.9901,-7.0023,-7.0026,-6.9931,-6.9975,-6.9981,-7.0013,-7.0039,-7.004,-7.0005,-6.9999,-7.0058,-7.0065,-7.0073,-7.0192,-7.0085,-7.009,-7.0093,-7.0344,-7.0348,-7.0352,0,0,0,0,0,0,-6.9888,-6.9903,-7.002,-6.9963,-6.9977,-6.9981,-7.0017,-7.0016,-7.0036,-7.0044,-7.0044,-7.0025,-7.0056,-7.0066,-7.0141,-7.0193,-7.0092,-7.0097,-7.034,-7.0345,-7.035,-7.043,0,0,0,0,0,0,-6.9884,-6.9902,-6.9941,-6.9964,-6.998,-7.0089,-7.002,-7.0019,-7.0046,-7.0039,-7.0063,-7.0064,-7.0054,-7.0133,-7.0146,-7.0198,-7.0101,-7.0335,-7.0342,-7.0349,-7.0422,-7.0437,-7.045,0,0,0,0,0,-6.9878,-6.9959,-6.9943,-6.9958,-7.0029,-7.0092,-7.0101,-7.0089,-7.005,-7.0089,-7.0094,-7.0063,-7.0185,-7.0142,-7.0156,-7.021,-7.0332,-7.034,-7.0348,-7.0416,-7.0434,-7.0449,0,0,0,0,0,0,-6.994,-6.9962,-6.9944,-7.0036,-7.0063,-7.0083,-7.0131,-7.0109,-7.0145,-7.0137,-7.012,-7.0125,-7.0206,-7.0215,-7.0166,-7.0308,-7.0252,-7.0263,-7.0299,-7.0316,-7.0329,-7.0325,-7.0106,0,0,0,0,0,-6.9965,-7.0016,-7.0031,-7.0111,-7.0126,-7.0126,-7.0153,-7.0142,-7.0168,-7.0179,-7.0189,-7.0214,-7.0258,-7.0288,-7.0328,-7.0424,-7.0428,-7.0468,-7.0481,-7.0493,-7.0503,-7.0554,-7.0572,-7.0379,-7.0379,-7.0379,0,0,-7.0015,-7.0034,-7.0067,-7.0124,-7.0143,-7.0195,-7.0136,-7.0193,-7.0231,-7.0186,-7.0259,-7.0268,-7.0295,-7.0381,-7.0419,-7.0391,-7.0557,-7.0503,-7.0512,-7.0516,-7.0564,-7.0582,-7.0599,-7.0385,-7.0384,-7.0383,0,0,-7.0135,-7.0154,-7.0223,-7.0244,-7.0275,-7.0275,-7.0292,-7.0315,-7.032,-7.0393,-7.0362,-7.0405,-7.0481,-7.0502,-7.0523,-7.0651,-7.0624,-7.0665,-7.0736,-7.0786,-7.0801,-7.0815,-7.0861,-7.0877,-7.0675,-7.0675,-7.0675,0,-7.0193,-7.0272,-7.0261,-7.0321,-7.0347,-7.0312,-7.038,-7.0401,-7.0443,-7.0461,-7.0429,-7.0525,-7.054,-7.0631,-7.0663,-7.068,-7.0698,-7.0662,-7.0801,-7.0814,-7.0826,-7.087,-7.0887,-7.068,-7.0679,-7.0679,-7.0678,0,-7.0343,-7.0398,-7.0449,-7.0494,-7.0525,-7.0589,-7.0586,-7.0619,-7.0606,-7.0609,-7.0684,-7.0701,-7.0745,-7.0766,-7.0752,-7.0855,-7.0837,-7.0804,-7.0747,-7.0849,-7.089,-7.0907,-7.0687,-7.0685,-7.0684,-7.0682,0,0,-7.0502,-7.054,-7.0559,-7.0579,-7.0612,-7.0653,-7.0715,-7.0761,-7.0789,-7.0819,-7.0871,-7.0937,-7.0907,-7.093,-7.0918,-7.0962,-7.1063,-7.0923,-7.0924,-7.0949,-7.1177,-7.1202,-7.1222,-7.1046,-7.1049,-7.1051,-7.1175,0,-7.0623,-7.0733,-7.0725,-7.0829,-7.0879,-7.0847,-7.0901,-7.0926,-7.0931,-7.0973,-7.0977,-7.1024,-7.0981,-7.0995,-7.1037,-7.1042,-7.1109,-7.1033,-7.1092,-7.1094,-7.1087,-7.1243,-7.1269,-7.1385,-7.1191,-7.1193,-7.1195,0,-7.0778,-7.0817,-7.0926,-7.0952,-7.0972,-7.1022,-7.1063,-7.1104,-7.1131,-7.1131,-7.1158,-7.114,-7.1201,-7.1144,-7.1228,-7.1176,-7.12,-7.1206,-7.121,-7.1215,-7.1151,-7.1252,-7.1422,-7.144,-7.122,-7.1218,-7.1217,0,-7.0884,-7.0962,-7.1038,-7.1056,-7.1088,-7.1123,-7.1137,-7.1162,-7.119,-7.1225,-7.1243,-7.1284,-7.1307,-7.1339,-7.1331,-7.129,-7.1417,-7.1359,-7.1418,-7.1418,-7.1446,-7.1444,-7.1622,-7.1462,-7.1461,-7.1461,-7.1461,0,-7.1019,-7.1087,-7.1086,-7.1133,-7.1208,-7.1198,-7.1272,-7.1282,-7.1304,-7.1351,-7.1324,-7.1369,-7.1356,-7.14,-7.1394,-7.1464,-7.1474,-7.1476,-7.1473,-7.1478,-7.1478,-7.1493,-7.1485,-7.1466,-7.1464,-7.1464,-7.1463,0,-7.1149,-7.1152,-7.1232,-7.1257,-7.1264,-7.1319,-7.1338,-7.1382,-7.1385,-7.1444,-7.1458,-7.1462,-7.1512,-7.1508,-7.1563,-7.1559,-7.1646,-7.1634,-7.1638,-7.1635,-7.1695,-7.1689,-7.1888,-7.1914,-7.1737,-7.1739,-7.174,0,-7.1236,-7.1288,-7.1319,-7.1349,-7.1367,-7.1416,-7.1446,-7.1437,-7.1468,-7.1504,-7.1543,-7.1591,-7.1628,-7.1709,-7.1716,-7.1758,-7.1747,-7.1814,-7.1753,-7.1757,-7.1748,-7.1745,-7.175,-7.1826,-7.1828,-7.1829,-7.1831,0,-7.1389,-7.1388,-7.1432,-7.1478,-7.1514,-7.1548,-7.1579,-7.1606,-7.16,-7.1636,-7.1688,-7.1718,-7.1776,-7.1823,-7.1864,-7.1876,-7.1853,-7.185,-7.1866,-7.1871,-7.1871,-7.1872,-7.1671,-7.1845,-7.1844,-7.1843,-7.1842,-7.1841,-7.15,-7.1545,-7.1575,-7.1625,-7.1648,-7.1678,-7.1721,-7.173,-7.1774,-7.1822,-7.1813,-7.1872,-7.1897,-7.195,-7.1967,-7.2011,-7.1986,-7.2009,-7.2015,-7.2021,-7.2028,-7.1865,-7.2018,-7.2017,-7.2017,-7.2017,-7.2016,0,-7.1652,-7.167,-7.1716,-7.1762,-7.1802,-7.1779,-7.1812,-7.1846,-7.1898,-7.1925,-7.1964,-7.2024,-7.207,-7.2081,-7.2125,-7.2159,-7.2149,-7.217,-7.2168,-7.2171,-7.2047,-7.2029,-7.2178,-7.2178,-7.2178,-7.2178,-7.2178,-7.2177,-7.1736,-7.1811,-7.1814,-7.19,-7.1917,-7.1975,-7.1997,-7.2024,-7.2046,-7.2115,-7.2154,-7.2162,-7.2182,-7.2228,-7.2269,-7.2271,-7.2288,-7.2314,-7.2312,-7.2196,-7.218,-7.2164,-7.2147,-7.2318,-7.2318,-7.2432,-7.2433,-7.2434]}]]